Precipitable_Water
1.46 1.39 1.36 1.23 1.05 0.95 0.88 0.82 0.77 0.84 0.85 0.82 0.79 0.81 0.80 0.76 0.77 0.76 0.80 0.79 0.84 0.78 0.82 0.83 0.81 0.78 0.75 0.71 0.72 0.73 0.74 0.72 0.71
1.51 1.42 1.26 1.14 0.98 0.88 0.84 0.77 0.79 0.82 0.84 0.84 0.77 0.77 0.75 0.72 0.72 0.76 0.79 0.82 0.86 0.83 0.83 0.82 0.82 0.82 0.81 0.73 0.71 0.71 0.74 0.73 0.71
1.57 1.47 1.25 1.10 0.93 0.86 0.79 0.73 0.77 0.81 0.81 0.80 0.78 0.73 0.71 0.72 0.71 0.77 0.82 0.85 0.82 0.81 0.81 0.80 0.78 0.81 0.79 0.77 0.74 0.72 0.73 0.74 0.74
1.60 1.52 1.32 1.10 0.96 0.83 0.73 0.71 0.77 0.77 0.80 0.77 0.74 0.73 0.69 0.68 0.72 0.74 0.80 0.80 0.81 0.79 0.77 0.79 0.78 0.76 0.77 0.75 0.74 0.71 0.71 0.72 0.72
1.56 1.52 1.40 1.15 0.96 0.83 0.71 0.70 0.76 0.75 0.77 0.75 0.76 0.73 0.72 0.69 0.70 0.74 0.78 0.79 0.79 0.79 0.76 0.76 0.78 0.76 0.74 0.73 0.72 0.70 0.70 0.68 0.69
1.58 1.52 1.44 1.27 0.98 0.83 0.70 0.72 0.75 0.76 0.76 0.76 0.75 0.72 0.71 0.72 0.72 0.74 0.77 0.77 0.76 0.75 0.75 0.73 0.74 0.76 0.72 0.72 0.73 0.70 0.71 0.70 0.67
1.61 1.59 1.47 1.33 1.07 0.84 0.72 0.75 0.71 0.71 0.73 0.75 0.73 0.72 0.71 0.71 0.71 0.76 0.77 0.75 0.75 0.71 0.73 0.71 0.70 0.71 0.73 0.70 0.72 0.71 0.70 0.70 0.69
1.65 1.59 1.50 1.34 1.15 0.91 0.74 0.74 0.66 0.66 0.68 0.70 0.72 0.73 0.72 0.70 0.73 0.77 0.77 0.75 0.74 0.71 0.71 0.68 0.68 0.68 0.68 0.70 0.69 0.69 0.69 0.70 0.70
1.63 1.57 1.49 1.37 1.25 0.99 0.74 0.68 0.62 0.64 0.68 0.68 0.71 0.72 0.71 0.69 0.72 0.75 0.75 0.74 0.74 0.73 0.71 0.68 0.67 0.66 0.66 0.67 0.66 0.67 0.67 0.67 0.68
1.62 1.59 1.51 1.40 1.32 1.10 0.78 0.67 0.60 0.62 0.66 0.68 0.69 0.69 0.69 0.69 0.70 0.72 0.73 0.73 0.72 0.73 0.73 0.71 0.67 0.65 0.64 0.63 0.64 0.64 0.65 0.66 0.66
1.61 1.55 1.52 1.45 1.36 1.23 0.90 0.71 0.62 0.62 0.65 0.65 0.68 0.69 0.68 0.67 0.68 0.70 0.71 0.71 0.71 0.71 0.72 0.72 0.68 0.64 0.62 0.61 0.62 0.63 0.64 0.65 0.64
1.64 1.57 1.52 1.51 1.43 1.28 1.03 0.83 0.70 0.65 0.66 0.64 0.67 0.68 0.66 0.65 0.65 0.66 0.68 0.70 0.71 0.71 0.71 0.70 0.68 0.65 0.63 0.61 0.60 0.61 0.61 0.65 0.67
1.73 1.61 1.54 1.53 1.49 1.33 1.10 0.92 0.74 0.67 0.64 0.62 0.65 0.66 0.65 0.63 0.62 0.63 0.65 0.65 0.68 0.70 0.71 0.68 0.68 0.68 0.66 0.65 0.64 0.64 0.63 0.63 0.65
1.78 1.71 1.59 1.51 1.46 1.39 1.16 1.01 0.83 0.70 0.65 0.62 0.64 0.65 0.63 0.61 0.60 0.59 0.60 0.63 0.63 0.63 0.65 0.66 0.68 0.69 0.70 0.68 0.64 0.64 0.62 0.62 0.62
1.80 1.72 1.69 1.58 1.40 1.37 1.22 1.05 0.94 0.78 0.69 0.62 0.59 0.62 0.63 0.61 0.58 0.55 0.55 0.55 0.54 0.55 0.59 0.63 0.65 0.67 0.70 0.67 0.63 0.61 0.61 0.60 0.60
1.80 1.75 1.66 1.63 1.50 1.34 1.25 1.12 0.94 0.80 0.73 0.59 0.55 0.55 0.56 0.54 0.53 0.50 0.47 0.45 0.42 0.40 0.45 0.56 0.60 0.61 0.62 0.63 0.57 0.58 0.60 0.59 0.58
1.79 1.69 1.68 1.64 1.55 1.47 1.31 1.15 0.99 0.83 0.75 0.60 0.53 0.45 0.47 0.47 0.46 0.44 0.41 0.39 0.38 0.33 0.38 0.43 0.52 0.55 0.53 0.52 0.50 0.50 0.54 0.56 0.57
1.69 1.68 1.64 1.64 1.61 1.48 1.41 1.28 1.05 0.82 0.77 0.70 0.52 0.42 0.37 0.40 0.41 0.39 0.39 0.37 0.35 0.35 0.38 0.42 0.43 0.47 0.47 0.47 0.48 0.44 0.46 0.52 0.56
1.51 1.60 1.62 1.59 1.60 1.53 1.47 1.37 1.14 0.90 0.71 0.69 0.56 0.47 0.42 0.36 0.33 0.36 0.35 0.36 0.34 0.33 0.35 0.39 0.43 0.45 0.45 0.49 0.50 0.48 0.48 0.48 0.52
1.47 1.47 1.57 1.55 1.56 1.50 1.48 1.42 1.20 0.96 0.76 0.64 0.55 0.47 0.44 0.42 0.36 0.32 0.34 0.36 0.35 0.35 0.37 0.39 0.43 0.43 0.44 0.47 0.48 0.49 0.50 0.51 0.51
Wind_Speed
22 21 21 18 16 15 15 15 15 15 14 14 15 14 14 15 15 15 16 17 17 17 18 18 18 18 17 16 14 13 12 11 10
24 23 21 20 17 16 15 15 15 14 14 14 14 13 13 13 14 14 15 16 16 17 17 18 18 18 18 18 18 17 16 15 13
27 24 22 21 19 17 16 16 16 14 14 14 13 12 12 12 13 13 13 14 15 16 16 17 17 18 18 19 19 18 18 17 17
29 26 23 22 20 19 18 18 17 15 15 14 13 12 12 12 11 11 12 12 13 14 15 16 16 17 17 17 18 18 17 17 17
31 28 25 23 22 20 19 19 18 16 16 15 14 12 12 11 10 11 10 11 11 12 13 13 14 15 15 16 16 17 17 17 17
32 30 27 24 23 22 21 21 19 18 17 16 14 12 12 11 10 9 10 9 10 10 10 11 12 12 13 13 14 15 15 15 15
33 31 29 27 24 23 22 22 20 19 18 17 14 13 12 11 10 9 9 8 8 8 8 8 9 9 10 11 11 12 12 12 12
35 33 31 29 26 24 24 24 22 20 20 18 16 14 13 11 10 9 8 8 7 7 6 5 6 6 7 8 8 9 9 9 9
37 34 32 30 28 26 26 25 23 22 21 20 17 15 14 12 11 10 9 8 7 6 5 4 4 4 4 5 6 6 6 7 7
38 36 34 32 30 29 28 27 25 24 23 21 19 17 15 14 12 11 10 8 7 6 4 4 3 3 3 2 3 3 4 4 5
40 38 37 35 33 31 30 28 26 26 25 23 21 19 17 15 14 12 11 9 8 6 5 4 4 3 3 2 1 1 2 3 4
42 40 39 37 35 33 32 30 28 27 26 24 23 21 19 17 16 14 12 10 9 7 6 6 5 4 4 3 2 2 2 3 4
44 43 41 40 38 36 35 32 30 29 28 26 24 23 21 20 18 16 14 12 10 9 8 7 6 6 5 4 3 3 3 3 5
48 45 43 42 40 38 37 35 33 31 29 28 26 24 23 22 20 18 17 15 13 11 10 8 8 7 7 6 4 4 4 5 6
51 48 46 46 42 40 38 37 35 33 31 29 27 26 24 23 22 21 19 17 16 14 13 11 10 9 8 8 7 6 6 7 8
52 51 50 48 45 42 40 39 37 35 34 30 28 26 25 25 24 23 22 20 18 17 16 14 12 11 10 10 9 9 9 9 10
54 54 54 52 48 45 43 42 39 37 37 33 30 28 27 27 26 25 24 22 21 20 18 17 16 14 13 12 12 11 11 11 12
52 53 52 45 48 47 45 44 42 40 39 37 32 29 28 28 28 28 26 25 24 22 21 20 19 17 16 15 15 15 14 14 15
44 46 48 52 43 45 46 44 43 42 40 40 35 32 29 29 27 29 28 27 26 25 23 22 21 20 19 18 17 17 17 16 16
47 47 46 44 45 42 42 48 45 43 42 41 38 34 31 29 27 27 29 29 28 27 26 25 24 22 21 20 19 18 19 19 19
Wind_Direction
182 179 177 174 171 166 160 155 150 143 137 133 127 119 110 105 98 93 87 84 81 80 77 76 75 75 76 76 77 76 75 74 73
186 183 181 180 178 174 169 164 158 152 145 141 134 127 117 111 104 98 92 88 84 81 79 77 76 75 75 76 78 78 77 76 74
189 187 185 185 183 180 177 172 168 162 157 149 143 135 126 118 112 103 98 94 88 84 81 79 78 76 76 76 77 78 78 77 75
192 191 190 189 188 186 182 178 175 170 165 159 153 145 138 129 120 114 106 100 94 89 85 82 80 78 77 77 77 77 77 77 76
196 195 195 194 193 191 188 184 180 177 173 168 162 155 149 139 132 125 118 110 102 96 91 85 83 81 79 77 77 76 76 75 76
200 200 199 197 197 195 193 189 184 181 179 176 171 167 160 153 144 137 131 122 114 105 98 92 87 83 81 79 77 76 76 75 73
202 202 201 200 199 198 196 193 189 187 186 183 179 175 170 163 157 150 144 137 128 119 108 100 94 88 84 81 78 76 74 73 70
204 203 203 203 202 202 199 197 194 193 192 190 187 183 180 175 169 163 158 151 143 135 126 117 104 96 90 84 81 76 72 68 65
206 206 205 205 206 205 203 200 198 197 196 195 193 190 188 186 183 176 171 166 160 152 147 143 128 114 103 92 83 75 68 61 55
207 207 207 208 207 208 205 203 202 200 200 199 198 197 195 193 190 188 185 183 177 174 173 171 168 155 137 116 91 71 57 44 35
209 209 209 209 209 209 207 206 205 203 203 203 203 203 201 199 197 195 193 195 193 194 198 198 200 198 190 187 180 15 14 9 5
211 211 210 210 210 210 207 207 206 205 205 207 207 207 206 205 204 202 202 203 209 211 210 213 214 214 220 224 241 272 312 336 341
212 212 212 210 210 211 210 210 209 208 208 209 210 211 210 210 210 210 210 210 212 215 218 218 220 220 222 233 244 269 292 316 326
214 214 213 212 212 212 212 212 211 209 209 210 212 213 215 215 215 216 216 218 220 221 224 226 225 227 232 235 248 265 284 300 314
216 215 214 213 213 213 214 213 212 212 210 211 213 216 218 219 220 221 221 223 227 228 232 233 234 232 237 244 250 264 280 291 300
216 215 214 213 213 213 213 213 212 213 211 212 215 219 221 223 223 224 225 226 229 231 233 234 234 234 242 247 256 264 277 287 295
216 216 215 216 214 213 213 214 215 215 214 218 219 223 226 226 226 227 228 229 230 231 234 236 237 239 245 251 258 268 277 284 292
214 215 216 218 214 217 218 218 216 216 217 216 222 224 228 226 228 229 230 231 233 233 235 236 238 242 247 254 260 267 273 282 289
216 211 213 217 212 219 218 215 218 218 219 219 224 226 226 227 230 231 232 233 235 235 236 237 240 244 247 253 261 266 270 278 286
213 212 212 212 216 214 217 219 220 220 220 221 223 225 227 228 230 232 233 235 234 235 238 238 242 243 247 253 260 265 268 276 283